GW1618 Weather Reports


time (UTC)temp
C
wind
direction
speed
KPH
gust
KPH
rain 1hr
cm
rain 24hr
cm
rain mn
cm
humidity
%
barometer
mb
20260510071137 13 9 0.0 3.2 0.00 0.00 0.00 81 1015.5
20260510070630 13 9 0.0 1.6 0.00 0.00 0.00 80 1015.5
20260510070127 13 9 1.6 3.2 0.00 0.00 0.00 80 1015.4
20260510065622 13 9 1.6 3.2 0.00 0.00 0.00 80 1015.4
20260510065118 13 9 1.6 3.2 0.00 0.00 0.00 80 1015.4
20260510064606 13 9 0.0 1.6 0.00 0.00 0.00 80 1015.4
20260510064102 13 9 1.6 1.6 0.00 0.00 0.00 80 1015.4
20260510063602 13 9 1.6 3.2 0.00 0.00 0.00 80 1015.5
20260510063051 13 9 0.0 3.2 0.00 0.00 0.00 79 1015.5
20260510062545 13 9 0.0 1.6 0.00 0.00 0.00 79 1015.5
20260510062032 13 9 0.0 1.6 0.00 0.00 0.00 79 1015.5
20260510061531 13 9 0.0 1.6 0.00 0.00 0.00 78 1015.5
20260510061032 13 9 0.0 3.2 0.00 0.00 0.00 78 1015.5
20260510060539 13 9 0.0 3.2 0.00 0.00 0.00 77 1015.7
20260510060031 13 9 0.0 3.2 0.00 0.00 0.00 76 1015.7
20260510055529 13 9 1.6 3.2 0.00 0.00 0.00 76 1015.7
20260510055020 14 9 3.2 4.8 0.00 0.00 0.00 75 1015.6
20260510054517 14 9 1.6 4.8 0.00 0.00 0.00 75 1015.6
20260510054014 14 354 1.6 3.2 0.00 0.00 0.00 75 1015.6
20260510053750 14 354 1.6 3.2 0.00 0.00 0.00 74 1015.5
20260510053005 14 354 1.6 3.2 0.00 0.00 0.00 74 1015.5
20260510052506 14 354 1.6 3.2 0.00 0.00 0.00 75 1015.5
20260510051959 15 359 1.6 3.2 0.00 0.00 0.00 75 1015.4
20260510051459 15 359 1.6 3.2 0.00 0.00 0.00 72 1015.4
20260510050955 15 354 1.6 3.2 0.00 0.00 0.00 72 1015.4
20260510050455 15 352 1.6 3.2 0.00 0.00 0.00 71 1015.4
20260510045956 15 352 1.6 3.2 0.00 0.00 0.00 71 1015.4
20260510045454 15 352 1.6 3.2 0.00 0.00 0.00 70 1015.4
20260510044951 15 352 1.6 3.2 0.00 0.00 0.00 72 1015.2
20260510044446 15 353 1.6 3.2 0.00 0.00 0.00 70 1015.2
20260510043947 15 359 1.6 4.8 0.00 0.00 0.00 69 1015.2
20260510043436 15 351 3.2 4.8 0.00 0.00 0.00 68 1015.2
20260510042931 16 346 3.2 4.8 0.00 0.00 0.00 67 1015.2
20260510042431 16 349 3.2 4.8 0.00 0.00 0.00 69 1015.2
20260510041931 16 348 3.2 4.8 0.00 0.00 0.00 68 1015.2
20260510041433 16 9 3.2 4.8 0.00 0.00 0.00 66 1015.2
20260510040930 16 4 1.6 3.2 0.00 0.00 0.00 63 1015.2
20260510040706 16 4 0.0 1.6 0.00 0.00 0.00 62 1015.1
20260510035931 16 4 1.6 1.6 0.00 0.00 0.00 62 1015.1
20260510035427 17 4 1.6 3.2 0.00 0.00 0.00 64 1015.1
20260510034922 17 4 1.6 3.2 0.00 0.00 0.00 62 1015.1
20260510034641 17 359 1.6 4.8 0.00 0.00 0.00 61 1015.1
20260510033902 17 359 3.2 4.8 0.00 0.00 0.00 60 1015.1
20260510033403 17 4 3.2 6.4 0.00 0.00 0.00 61 1015.0
20260510033144 17 13 4.8 6.4 0.00 0.00 0.00 60 1015.0
20260510032402 17 22 4.8 6.4 0.00 0.00 0.00 59 1015.0
20260510031902 18 16 3.2 6.4 0.00 0.00 0.00 59 1015.0
20260510031651 18 359 3.2 6.4 0.00 0.00 0.00 59 1015.0
20260510030902 18 28 4.8 6.4 0.00 0.00 0.00 55 1015.0
20260510030401 18 359 4.8 8.0 0.00 0.00 0.00 54 1014.9
20260510025902 18 338 4.8 8.0 0.00 0.00 0.00 54 1014.9
20260510025401 18 354 4.8 6.4 0.00 0.00 0.00 54 1014.9
20260510024901 19 13 3.2 6.4 0.00 0.00 0.00 53 1015.0
20260510024402 20 17 3.2 8.0 0.00 0.00 0.00 51 1015.0
20260510023904 20 48 3.2 8.0 0.00 0.00 0.00 48 1015.0
20260510023404 20 47 4.8 9.7 0.00 0.00 0.00 47 1015.0
20260510022905 20 92 6.4 11.3 0.00 0.00 0.00 46 1015.0
20260510022403 20 56 6.4 11.3 0.00 0.00 0.00 46 1015.0
20260510021902 20 82 6.4 9.7 0.00 0.00 0.00 45 1015.2
20260510021428 20 78 6.4 9.7 0.00 0.00 0.00 45 1015.2
20260510020403 20 111 6.4 9.7 0.00 0.00 0.00 45 1015.4
20260510015901 20 81 6.4 9.7 0.00 0.00 0.00 44 1015.4
20260510015403 20 150 4.8 9.7 0.00 0.00 0.00 43 1015.4
20260510014928 20 77 4.8 8.0 0.00 0.00 0.00 43 1015.5
20260510013902 20 86 4.8 9.7 0.00 0.00 0.00 43 1015.5
20260510013402 20 98 6.4 9.7 0.00 0.00 0.00 43 1015.8
20260510012901 20 44 6.4 11.3 0.00 0.00 0.00 43 1015.8
20260510012403 20 54 6.4 11.3 0.00 0.00 0.00 42 1015.8
20260510011903 20 88 4.8 11.3 0.00 0.00 0.00 42 1016.0
20260510011429 20 71 4.8 9.7 0.00 0.00 0.00 42 1016.0
20260510010403 20 50 4.8 11.3 0.00 0.00 0.00 43 1016.1
20260510005903 20 75 4.8 9.7 0.00 0.00 0.00 45 1016.1
20260510005404 20 9 6.4 9.7 0.00 0.00 0.00 42 1016.1
20260510004903 20 69 6.4 9.7 0.00 0.00 0.00 44 1016.2
20260510004655 20 4 4.8 8.0 0.00 0.00 0.00 44 1016.2
20260510003851 20 355 3.2 8.0 0.00 0.00 0.00 46 1016.2
20260510003344 20 92 4.8 9.7 0.00 0.00 0.00 47 1016.4
20260510002840 20 4 6.4 9.7 0.00 0.00 0.00 45 1016.4
20260510002336 20 351 6.4 12.9 0.00 0.00 0.00 47 1016.4
20260510001837 20 359 6.4 12.9 0.00 0.00 0.00 47 1016.5
20260510001631 19 4 6.4 9.7 0.00 0.00 0.00 47 1016.5
20260510000838 19 15 6.4 11.3 0.00 0.00 0.00 47 1016.5
20260510000622 19 15 6.4 11.3 0.00 0.00 0.00 47 1016.7
20260509235831 19 359 6.4 11.3 0.00 0.00 0.00 46 1016.7
20260509235331 19 17 6.4 9.7 0.00 0.00 0.00 47 1016.7
20260509234832 19 4 6.4 9.7 0.00 0.00 0.00 48 1017.0
20260509234331 19 9 6.4 11.3 0.00 0.00 0.00 47 1017.0
20260509233832 19 350 8.0 11.3 0.00 0.00 0.00 47 1017.0
20260509233331 19 344 8.0 11.3 0.00 0.00 0.00 47 1017.0
20260509232829 19 13 8.0 11.3 0.00 0.00 0.00 45 1017.0
20260509232330 19 9 6.4 11.3 0.00 0.00 0.00 46 1017.0
20260509231829 19 9 6.4 11.3 0.00 0.00 0.00 46 1017.2
20260509231645 19 342 8.0 11.3 0.00 0.00 0.00 46 1017.2
20260509230338 18 4 8.0 11.3 0.00 0.00 0.00 47 1017.5
20260509225834 18 359 8.0 11.3 0.00 0.00 0.00 50 1017.5
20260509225615 18 359 6.4 11.3 0.00 0.00 0.00 51 1017.5
20260509224829 18 26 6.4 11.3 0.00 0.00 0.00 50 1017.6
20260509224330 18 4 6.4 9.7 0.00 0.00 0.00 51 1017.6
20260509223823 18 4 6.4 8.0 0.00 0.00 0.00 51 1017.6
20260509223321 18 332 6.4 9.7 0.00 0.00 0.00 52 1018.0
20260509222823 18 359 8.0 9.7 0.00 0.00 0.00 53 1018.0
20260509222319 18 347 8.0 9.7 0.00 0.00 0.00 52 1018.0
20260509221819 18 21 8.0 11.3 0.00 0.00 0.00 53 1018.1
20260509221318 18 9 8.0 11.3 0.00 0.00 0.00 53 1018.1
20260509220818 18 4 8.0 11.3 0.00 0.00 0.00 53 1018.1
20260509220318 18 28 8.0 11.3 0.00 0.00 0.00 52 1018.5
20260509215815 18 30 8.0 11.3 0.00 0.00 0.00 52 1018.5
20260509215315 18 4 8.0 11.3 0.00 0.00 0.00 53 1018.5
20260509214815 17 9 8.0 11.3 0.00 0.00 0.00 53 1018.6
20260509214313 17 4 9.7 12.9 0.00 0.00 0.00 54 1018.6
20260509214058 17 19 8.0 12.9 0.00 0.00 0.00 55 1018.6
20260509213313 17 26 8.0 11.3 0.00 0.00 0.00 57 1018.6
20260509212816 17 341 9.7 11.3 0.00 0.00 0.00 58 1018.6
20260509212311 17 359 9.7 12.9 0.00 0.00 0.00 55 1018.6
20260509211806 17 9 9.7 11.3 0.00 0.00 0.00 57 1018.7
20260509211259 16 16 9.7 11.3 0.00 0.00 0.00 56 1018.7
20260509211038 16 13 9.7 14.5 0.00 0.00 0.00 57 1018.7
20260509210243 16 9 9.7 14.5 0.00 0.00 0.00 58 1019.0
20260509205741 16 9 9.7 14.5 0.00 0.00 0.00 57 1019.0
20260509205240 16 9 9.7 14.5 0.00 0.00 0.00 59 1019.0
20260509205026 16 14 11.3 14.5 0.00 0.00 0.00 59 1019.1
20260509204237 16 15 9.7 12.9 0.00 0.00 0.00 59 1019.1
20260509203737 16 9 9.7 16.1 0.00 0.00 0.00 60 1019.1
20260509203236 16 359 9.7 16.1 0.00 0.00 0.00 59 1019.1
20260509202736 16 354 9.7 16.1 0.00 0.00 0.00 60 1019.1
20260509202236 16 18 11.3 16.1 0.00 0.00 0.00 60 1019.1
20260509201736 16 9 12.9 17.7 0.00 0.00 0.00 60 1019.3
20260509201233 16 9 11.3 17.7 0.00 0.00 0.00 61 1019.3
20260509200735 16 346 11.3 16.1 0.00 0.00 0.00 62 1019.3
20260509200234 16 352 11.3 16.1 0.00 0.00 0.00 63 1019.5
20260509200013 15 349 12.9 17.7 0.00 0.00 0.00 67 1019.5
20260509195515 15 14 14.5 17.7 0.00 0.00 0.00 65 1019.5
20260509194731 15 16 12.9 17.7 0.00 0.00 0.00 65 1019.6
20260509194229 15 9 12.9 17.7 0.00 0.00 0.00 65 1019.6
20260509194018 15 17 14.5 17.7 0.00 0.00 0.00 66 1019.6
20260509193230 15 9 12.9 17.7 0.00 0.00 0.00 68 1020.1
20260509192729 15 9 14.5 17.7 0.00 0.00 0.00 69 1020.1
20260509192230 15 15 16.1 19.3 0.00 0.00 0.00 71 1020.1
20260509191729 15 19 14.5 19.3 0.00 0.00 0.00 70 1020.2
20260509191233 15 23 14.5 17.7 0.00 0.00 0.00 71 1020.2
20260509190729 15 20 14.5 17.7 0.00 0.00 0.00 72 1020.2
20260509190228 15 9 12.9 17.7 0.00 0.00 0.00 72 1020.2
20260509185731 14 13 14.5 17.7 0.00 0.00 0.00 73 1020.2
20260509185523 14 359 14.5 17.7 0.00 0.00 0.00 72 1020.2
20260509184731 14 24 14.5 17.7 0.00 0.00 0.00 72 1020.2
20260509184230 14 350 14.5 17.7 0.00 0.00 0.00 72 1020.2
20260509184054 14 16 14.5 19.3 0.00 0.00 0.00 74 1020.2
20260509182729 13 13 14.5 17.7 0.00 0.00 0.00 76 1020.3
20260509182232 13 21 12.9 17.7 0.00 0.00 0.00 77 1020.3
20260509181736 13 9 12.9 17.7 0.00 0.00 0.00 77 1020.3
20260509181258 13 13 14.5 17.7 0.00 0.00 0.00 78 1020.3
20260509180230 13 13 14.5 17.7 0.00 0.00 0.00 79 1020.3
20260509180018 13 359 11.3 16.1 0.00 0.00 0.00 78 1020.3
20260509175229 13 9 9.7 14.5 0.00 0.00 0.00 79 1020.3
20260509174729 13 9 11.3 16.1 0.00 0.00 0.00 78 1020.5
20260509174230 13 9 11.3 16.1 0.00 0.00 0.00 79 1020.5
20260509173730 13 21 9.7 14.5 0.00 0.00 0.00 79 1020.5
20260509173230 13 21 9.7 14.5 0.00 0.00 0.00 78 1020.7
20260509172729 13 13 9.7 14.5 0.00 0.00 0.00 77 1020.7
20260509172230 13 359 9.7 12.9 0.00 0.00 0.00 78 1020.7
20260509171729 13 16 8.0 11.3 0.00 0.00 0.00 77 1020.7
20260509171518 13 345 9.7 14.5 0.00 0.00 0.00 79 1020.7
20260509170729 13 9 9.7 14.5 0.00 0.00 0.00 79 1020.7
20260509170230 13 13 8.0 12.9 0.00 0.00 0.00 78 1020.8
20260509165821 13 336 8.0 9.7 0.00 0.00 0.00 79 1020.8
20260509164232 13 337 3.2 8.0 0.00 0.00 0.00 77 1020.9
20260509163730 12 359 3.2 6.4 0.00 0.00 0.00 78 1020.9
20260509163230 12 22 3.2 6.4 0.00 0.00 0.00 78 1021.2
20260509162732 12 325 3.2 4.8 0.00 0.00 0.00 77 1021.2
20260509162228 12 316 3.2 6.4 0.00 0.00 0.00 78 1021.2
20260509161724 12 337 3.2 6.4 0.00 0.00 0.00 78 1021.2
20260509161226 12 28 3.2 6.4 0.00 0.00 0.00 78 1021.2
20260509161007 12 20 3.2 4.8 0.00 0.00 0.00 80 1021.2
20260509160500 12 345 3.2 4.8 0.00 0.00 0.00 81 1021.4
20260509155715 11 21 4.8 6.4 0.00 0.00 0.00 82 1021.4
20260509155509 11 344 4.8 6.4 0.00 0.00 0.00 82 1021.4
20260509154713 11 323 3.2 6.4 0.00 0.00 0.00 82 1021.4
20260509154505 11 341 3.2 6.4 0.00 0.00 0.00 83 1021.4
20260509153953 11 19 3.2 4.8 0.00 0.00 0.00 83 1021.4
20260509153206 11 26 4.8 6.4 0.00 0.00 0.00 84 1021.7
20260509152704 11 333 4.8 6.4 0.00 0.00 0.00 84 1021.7
20260509152204 11 333 3.2 4.8 0.00 0.00 0.00 85 1021.7
20260509151702 11 338 4.8 6.4 0.00 0.00 0.00 85 1021.7
20260509151202 11 341 4.8 6.4 0.00 0.00 0.00 84 1021.7
20260509150703 11 359 3.2 6.4 0.00 0.00 0.00 84 1021.7
20260509150202 11 359 3.2 8.0 0.00 0.00 0.00 84 1021.7
20260509145708 11 30 4.8 8.0 0.00 0.00 0.00 84 1021.7
20260509145201 11 57 3.2 8.0 0.00 0.00 0.00 85 1021.7
20260509144701 11 118 3.2 8.0 0.00 0.00 0.00 86 1021.8
20260509144202 10 97 4.8 8.0 0.00 0.00 0.00 87 1021.8
20260509143701 10 169 6.4 11.3 0.00 0.00 0.00 88 1021.8
20260509143201 10 88 6.4 11.3 0.00 0.00 0.00 87 1021.8
20260509142702 10 82 3.2 8.0 0.00 0.00 0.00 88 1021.8
20260509142444 10 113 3.2 9.7 0.00 0.00 0.00 88 1021.8
20260509141659 10 69 4.8 9.7 0.00 0.00 0.00 88 1021.7
20260509141158 10 111 4.8 9.7 0.00 0.00 0.00 88 1021.7
20260509140657 10 69 6.4 9.7 0.00 0.00 0.00 88 1021.7
20260509140156 10 86 6.4 8.0 0.00 0.00 0.00 88 1021.7
20260509135656 10 92 6.4 11.3 0.00 0.00 0.00 88 1021.7
20260509135434 10 78 6.4 11.3 0.00 0.00 0.00 89 1021.7
20260509134655 10 87 3.2 9.7 0.00 0.00 0.00 89 1021.6
20260509134157 10 90 1.6 6.4 0.00 0.00 0.00 90 1021.6
20260509133656 10 42 1.6 4.8 0.00 0.00 0.00 90 1021.6
20260509133147 10 14 3.2 4.8 0.00 0.00 0.00 90 1021.7
20260509132633 10 22 3.2 4.8 0.00 0.00 0.00 89 1021.7
20260509132413 10 359 3.2 4.8 0.00 0.00 0.00 89 1021.7
20260509131630 10 4 3.2 4.8 0.00 0.00 0.00 89 1021.7
20260509131126 10 17 3.2 4.8 0.00 0.00 0.00 89 1021.7
20260509130626 10 9 3.2 3.2 0.00 0.00 0.00 89 1021.7
20260509130338 10 9 1.6 4.8 0.00 0.00 0.00 89 1021.7
20260509125842 10 4 3.2 4.8 0.00 0.00 0.00 88 1021.7
20260509125104 10 359 3.2 4.8 0.00 0.00 0.00 88 1021.7
20260509124846 10 359 3.2 6.4 0.00 0.00 0.00 88 1021.7
20260509124101 10 359 3.2 6.4 0.00 0.00 0.00 88 1021.7
20260509123602 10 15 3.2 6.4 0.00 0.00 0.00 88 1021.7
20260509123103 10 13 3.2 6.4 0.00 0.00 0.00 88 1021.7
20260509122600 10 9 3.2 4.8 0.00 0.00 0.00 87 1021.7
20260509122058 10 344 3.2 6.4 0.00 0.00 0.00 87 1021.7
20260509121555 10 349 4.8 6.4 0.00 0.00 0.00 87 1021.7
20260509121039 10 353 4.8 6.4 0.00 0.00 0.00 87 1021.7
20260509120539 10 340 4.8 6.4 0.00 0.00 0.00 87 1021.8
20260509120309 10 350 3.2 6.4 0.00 0.00 0.00 87 1021.8
20260509115825 10 359 3.2 4.8 0.00 0.00 0.00 87 1021.8
20260509115256 10 359 3.2 4.8 0.00 0.00 0.00 87 1022.0
20260509114503 10 9 3.2 4.8 0.00 0.00 0.00 87 1022.0
20260509114002 10 359 1.6 4.8 0.00 0.00 0.00 87 1022.0
20260509113505 10 359 1.6 3.2 0.00 0.00 0.00 87 1022.2
20260509113005 10 359 1.6 3.2 0.00 0.00 0.00 87 1022.2
20260509112503 10 359 1.6 3.2 0.00 0.00 0.00 87 1022.2
20260509111959 10 359 1.6 3.2 0.00 0.00 0.00 87 1022.3
20260509111436 10 359 1.6 3.2 0.00 0.00 0.00 87 1022.3
20260509110934 10 359 1.6 3.2 0.00 0.00 0.00 87 1022.3
20260509110441 10 359 1.6 3.2 0.00 0.00 0.00 87 1022.3
20260509105416 10 359 0.0 1.6 0.00 0.00 0.00 87 1022.3
20260509104912 10 359 1.6 3.2 0.00 0.00 0.00 87 1022.3
20260509104406 10 359 3.2 4.8 0.00 0.00 0.00 87 1022.3
20260509103904 10 359 1.6 4.8 0.00 0.00 0.00 87 1022.3
20260509103403 10 359 1.6 4.8 0.00 0.00 0.00 87 1022.3
20260509103134 10 9 1.6 4.8 0.00 0.00 0.00 87 1022.3
20260509102639 10 9 1.6 4.8 0.00 0.00 0.00 87 1022.3
20260509101902 10 355 0.0 1.6 0.00 0.00 0.00 86 1022.3
20260509101405 10 355 0.0 1.6 0.00 0.00 0.00 86 1022.3
20260509100907 10 355 1.6 3.2 0.00 0.00 0.00 86 1022.3
20260509100402 10 355 1.6 3.2 0.00 0.00 0.00 86 1022.3
20260509095902 10 355 0.0 0.0 0.00 0.00 0.00 86 1022.3
20260509095403 10 355 0.0 0.0 0.00 0.00 0.00 86 1022.3
20260509094847 10 355 0.0 0.0 0.00 0.00 0.00 86 1022.3
20260509094341 10 355 0.0 1.6 0.00 0.00 0.00 86 1022.3
20260509093837 10 355 1.6 3.2 0.00 0.00 0.00 86 1022.3
20260509093331 10 355 3.2 3.2 0.00 0.00 0.00 85 1022.3
20260509092829 10 355 3.2 4.8 0.00 0.00 0.00 85 1022.3
20260509092329 10 355 3.2 4.8 0.00 0.00 0.00 85 1022.3
20260509091846 11 9 1.6 4.8 0.00 0.00 0.00 85 1022.5
20260509090830 11 296 0.0 3.2 0.00 0.00 0.00 85 1022.5
20260509090325 11 296 1.6 3.2 0.00 0.00 0.00 85 1022.7
20260509085826 11 296 1.6 4.8 0.00 0.00 0.00 85 1022.7
20260509085317 11 298 1.6 4.8 0.00 0.00 0.00 85 1022.7
20260509084812 11 283 1.6 4.8 0.00 0.00 0.00 86 1022.8
20260509084303 11 246 3.2 4.8 0.00 0.00 0.00 86 1022.8
20260509084042 11 232 3.2 4.8 0.00 0.00 0.00 86 1022.8
20260509083305 11 256 1.6 4.8 0.00 0.00 0.00 86 1022.8
20260509082804 10 256 0.0 4.8 0.00 0.00 0.00 87 1022.8
20260509082306 10 36 0.0 1.6 0.00 0.00 0.00 87 1022.8
20260509081806 10 36 1.6 1.6 0.00 0.00 0.00 87 1022.8
20260509081303 10 36 0.0 1.6 0.00 0.00 0.00 87 1022.8
20260509080802 10 36 0.0 3.2 0.00 0.00 0.00 86 1022.8
20260509080301 10 36 1.6 3.2 0.00 0.00 0.00 86 1022.8
20260509075825 10 36 1.6 3.2 0.00 0.00 0.00 87 1022.8
20260509074804 10 36 0.0 0.0 0.00 0.00 0.00 86 1022.8
20260509074305 10 36 0.0 1.6 0.00 0.00 0.00 86 1022.8
20260509073754 10 36 1.6 3.2 0.00 0.00 0.00 86 1022.8
20260509073245 10 36 1.6 3.2 0.00 0.00 0.00 85 1022.8
20260509072742 10 36 0.0 1.6 0.00 0.00 0.00 85 1022.8
20260509072526 10 36 0.0 1.6 0.00 0.00 0.00 84 1022.8
20260509071731 10 36 0.0 3.2 0.00 0.00 0.00 84 1022.7